AAL3048 KDFW-KEYW

Flight info

Callsign AAL3048
Flight time N/A
Altitude 39000
Route MRSSH3 ZALEA HRV Q105 BLVNS Y290 GAWKS PIKKR KRAKN1
Aircraft A319/M-SDE3FGHIRWY/LB1

Departure

Time 2026-05-04 15:26
Airport Dallas Fort Worth International Airport (KDFW)

Arrival

Time N/A
Airport Key West International Airport (KEYW)
Time Latitude Longitude Altitude Speed Heading
2026-05-04 15:01 32.90750 -97.03797 598 ft 0 kts 173°
2026-05-04 15:15 32.90760 -97.03798 598 ft 3 kts 175°
2026-05-04 15:15 32.90780 -97.03799 598 ft 3 kts 180°
2026-05-04 15:15 32.90800 -97.03799 598 ft 3 kts 182°
2026-05-04 15:16 32.90837 -97.03800 598 ft 3 kts 159°
2026-05-04 15:16 32.90851 -97.03808 598 ft 3 kts 141°
2026-05-04 15:16 32.90861 -97.03847 598 ft 3 kts 83°
2026-05-04 15:17 32.90860 -97.03861 598 ft 0 kts 87°
2026-05-04 15:19 32.90855 -97.03833 598 ft 6 kts 104°
2026-05-04 15:19 32.90841 -97.03774 598 ft 8 kts 107°
2026-05-04 15:19 32.90805 -97.03640 598 ft 9 kts 127°
2026-05-04 15:20 32.90816 -97.03575 598 ft 9 kts 56°
2026-05-04 15:20 32.90843 -97.03510 598 ft 9 kts 49°
2026-05-04 15:20 32.90902 -97.03483 598 ft 10 kts
2026-05-04 15:20 32.90970 -97.03478 598 ft 10 kts
2026-05-04 15:21 32.90992 -97.03440 598 ft 6 kts 96°
2026-05-04 15:21 32.91010 -97.03393 598 ft 6 kts 47°
2026-05-04 15:21 32.91101 -97.03362 598 ft 8 kts 360°
2026-05-04 15:22 32.91157 -97.03362 598 ft 8 kts 360°
2026-05-04 15:22 32.91219 -97.03362 598 ft 9 kts
2026-05-04 15:22 32.91357 -97.03358 598 ft 11 kts
2026-05-04 15:23 32.91434 -97.03359 598 ft 11 kts 359°
2026-05-04 15:23 32.91515 -97.03360 598 ft 12 kts 360°
2026-05-04 15:23 32.91559 -97.03300 598 ft 10 kts 86°
2026-05-04 15:23 32.91562 -97.03211 598 ft 11 kts 89°
2026-05-04 15:24 32.91558 -97.03020 598 ft 12 kts 97°
2026-05-04 15:24 32.91466 -97.02990 598 ft 3 kts 180°
2026-05-04 15:25 32.91225 -97.02990 598 ft 73 kts 180°
2026-05-04 15:25 32.90488 -97.02996 599 ft 136 kts 180°
2026-05-04 15:25 32.89391 -97.02998 684 ft 176 kts 185°
2026-05-04 15:26 32.86942 -97.02926 2067 ft 175 kts 181°
2026-05-04 15:26 32.85704 -97.02904 2604 ft 188 kts 183°
2026-05-04 15:26 32.82670 -97.02886 3379 ft 244 kts 182°
2026-05-04 15:27 32.80940 -97.02892 4220 ft 253 kts 183°
2026-05-04 15:27 32.77368 -97.02930 6247 ft 261 kts 182°
2026-05-04 15:28 32.73667 -97.02875 8101 ft 273 kts 173°
2026-05-04 15:28 32.71867 -97.02086 9037 ft 282 kts 150°
2026-05-04 15:28 32.69649 -96.98167 10548 ft 313 kts 105°
2026-05-04 15:29 32.69148 -96.95562 10974 ft 332 kts 104°
2026-05-04 15:30 32.69006 -96.84244 14134 ft 352 kts 89°
2026-05-04 15:30 32.69114 -96.75388 16200 ft 366 kts 88°
2026-05-04 15:31 32.69202 -96.69255 17441 ft 378 kts 88°
2026-05-04 15:31 32.69251 -96.66118 18139 ft 382 kts 88°
2026-05-04 15:32 32.69387 -96.56503 19911 ft 395 kts 87°
2026-05-04 15:32 32.69476 -96.49905 21077 ft 405 kts 87°
2026-05-04 15:33 32.69562 -96.43151 22223 ft 413 kts 86°
2026-05-04 15:34 32.69643 -96.32795 23813 ft 428 kts 90°
2026-05-04 15:34 32.69418 -96.29249 24257 ft 433 kts 91°
2026-05-04 15:34 32.68941 -96.22048 25128 ft 442 kts 91°
2026-05-04 15:35 32.68453 -96.14718 25966 ft 450 kts 91°
2026-05-04 15:35 32.68204 -96.11004 26374 ft 453 kts 91°
2026-05-04 15:35 32.67951 -96.07257 26825 ft 456 kts 91°
2026-05-04 15:36 32.67440 -95.99702 27674 ft 463 kts 91°
2026-05-04 15:36 32.67270 -95.97176 27934 ft 465 kts 91°
2026-05-04 15:36 32.66919 -95.92030 28465 ft 470 kts 91°
2026-05-04 15:37 32.66652 -95.88145 28839 ft 474 kts 91°
2026-05-04 15:37 32.66472 -95.85556 29091 ft 476 kts 91°
2026-05-04 15:37 32.66196 -95.81623 29470 ft 480 kts 91°
2026-05-04 15:37 32.65916 -95.77665 29845 ft 484 kts 91°
2026-05-04 15:38 32.65636 -95.73673 30209 ft 487 kts 91°
2026-05-04 15:38 32.65354 -95.69653 30533 ft 490 kts 91°
2026-05-04 15:38 32.65072 -95.65617 30894 ft 492 kts 91°
2026-05-04 15:38 32.64790 -95.61558 31211 ft 495 kts 91°
2026-05-04 15:39 32.64504 -95.57476 31510 ft 498 kts 91°
2026-05-04 15:39 32.64214 -95.53369 31802 ft 501 kts 91°
2026-05-04 15:39 32.63616 -95.45090 32353 ft 507 kts 91°
2026-05-04 15:40 32.63310 -95.40913 32630 ft 510 kts 91°
2026-05-04 15:40 32.63000 -95.36725 32997 ft 510 kts 91°
2026-05-04 15:40 32.62687 -95.32537 33419 ft 510 kts 91°
2026-05-04 15:40 32.62377 -95.28351 33916 ft 507 kts 91°
2026-05-04 15:41 32.62071 -95.24188 34316 ft 507 kts 91°
2026-05-04 15:41 32.61769 -95.20025 34672 ft 507 kts 91°
2026-05-04 15:41 32.61463 -95.15856 34985 ft 507 kts 91°
2026-05-04 15:41 32.61154 -95.11689 35287 ft 508 kts 91°
2026-05-04 15:42 32.60840 -95.07513 35582 ft 509 kts 91°
2026-05-04 15:42 32.60521 -95.03333 35875 ft 509 kts 91°
2026-05-04 15:42 32.60201 -94.99147 36156 ft 510 kts 90°
2026-05-04 15:42 32.59881 -94.94954 36462 ft 510 kts 90°
2026-05-04 15:43 32.59562 -94.90769 36806 ft 509 kts 90°
2026-05-04 15:43 32.59244 -94.86592 37120 ft 509 kts 90°
2026-05-04 15:43 32.58923 -94.82416 37397 ft 509 kts 90°
2026-05-04 15:43 32.58494 -94.78245 37651 ft 513 kts 97°
2026-05-04 15:44 32.57610 -94.74134 37908 ft 517 kts 106°
2026-05-04 15:44 32.56462 -94.70090 38152 ft 518 kts 106°
2026-05-04 15:44 32.55315 -94.66043 38385 ft 518 kts 106°
2026-05-04 15:44 32.54168 -94.61988 38618 ft 519 kts 105°
2026-05-04 15:45 32.53022 -94.57928 38782 ft 520 kts 105°
2026-05-04 15:45 32.51874 -94.53860 38990 ft 520 kts 106°
2026-05-04 15:45 32.50728 -94.49798 39130 ft 520 kts 106°
2026-05-04 15:46 32.48451 -94.41766 39157 ft 516 kts 106°
2026-05-04 15:46 32.46148 -94.33656 39156 ft 516 kts 106°
2026-05-04 15:47 32.43847 -94.25611 39157 ft 516 kts 106°
2026-05-04 15:47 32.41553 -94.17625 39179 ft 515 kts 107°
2026-05-04 15:48 32.39259 -94.09621 39168 ft 513 kts 106°
2026-05-04 15:48 32.35823 -93.97641 39190 ft 513 kts 107°
2026-05-04 15:49 32.33508 -93.89662 39195 ft 513 kts 107°
2026-05-04 15:49 32.31190 -93.81679 39199 ft 513 kts 107°
2026-05-04 15:50 32.28874 -93.73703 39198 ft 513 kts 107°
2026-05-04 15:50 32.26557 -93.65735 39198 ft 513 kts 107°
2026-05-04 15:51 32.24227 -93.57770 39199 ft 513 kts 107°
2026-05-04 15:51 32.21799 -93.49846 39197 ft 514 kts 113°
2026-05-04 15:52 32.18053 -93.42688 39198 ft 513 kts 129°
2026-05-04 15:52 32.13679 -93.36020 39199 ft 514 kts 129°
2026-05-04 15:53 32.09316 -93.29338 39207 ft 514 kts 128°
2026-05-04 15:53 32.04961 -93.22648 39204 ft 514 kts 128°
2026-05-04 15:54 32.00595 -93.15968 39170 ft 515 kts 129°
2026-05-04 15:54 31.96212 -93.09283 39180 ft 516 kts 129°
2026-05-04 15:55 31.91812 -93.02604 39215 ft 516 kts 129°
2026-05-04 15:55 31.87413 -92.95927 39219 ft 516 kts 129°
2026-05-04 15:56 31.83018 -92.89264 39222 ft 515 kts 129°
2026-05-04 15:56 31.78624 -92.82612 39224 ft 515 kts 129°
2026-05-04 15:57 31.74254 -92.76010 39196 ft 515 kts 129°
2026-05-04 15:57 31.69853 -92.69368 39199 ft 516 kts 129°
2026-05-04 15:58 31.65440 -92.62730 39228 ft 515 kts 129°
2026-05-04 15:58 31.61038 -92.56101 39222 ft 515 kts 129°
2026-05-04 15:59 31.56636 -92.49484 39214 ft 514 kts 129°
2026-05-04 15:59 31.52232 -92.42890 39199 ft 514 kts 130°
2026-05-04 16:00 31.47820 -92.36303 39160 ft 514 kts 130°
2026-05-04 16:00 31.43402 -92.29715 39163 ft 514 kts 130°
2026-05-04 16:01 31.38984 -92.23129 39198 ft 514 kts 130°
2026-05-04 16:01 31.34570 -92.16548 39195 ft 514 kts 130°
2026-05-04 16:02 31.30158 -92.09983 39201 ft 513 kts 130°
2026-05-04 16:03 31.23524 -92.00159 39222 ft 513 kts 130°
2026-05-04 16:03 31.19094 -91.93617 39191 ft 513 kts 130°
2026-05-04 16:04 31.14687 -91.87120 39211 ft 514 kts 131°
2026-05-04 16:04 31.08043 -91.77319 39213 ft 513 kts 131°
2026-05-04 16:05 31.03606 -91.70801 39217 ft 513 kts 131°
2026-05-04 16:06 30.96953 -91.61034 39218 ft 513 kts 131°
2026-05-04 16:07 30.88081 -91.48046 39210 ft 512 kts 132°
2026-05-04 16:08 30.79214 -91.35114 39215 ft 510 kts 133°
2026-05-04 16:09 30.68175 -91.19077 39212 ft 509 kts 133°
2026-05-04 16:10 30.59319 -91.06261 39216 ft 508 kts 133°
2026-05-04 16:11 30.50477 -90.93509 39230 ft 506 kts 133°
2026-05-04 16:12 30.37228 -90.74468 39208 ft 505 kts 134°
2026-05-04 16:13 30.28393 -90.61813 39225 ft 505 kts 134°
2026-05-04 16:14 30.19546 -90.49188 39240 ft 505 kts 134°
2026-05-04 16:16 30.08474 -90.33442 39194 ft 504 kts 135°
2026-05-04 16:17 29.97396 -90.17755 39209 ft 504 kts 135°
2026-05-04 16:18 29.88555 -90.05281 39212 ft 504 kts 135°
2026-05-04 16:19 29.77372 -89.89790 39198 ft 501 kts 138°
2026-05-04 16:20 29.66090 -89.74515 39211 ft 501 kts 137°
2026-05-04 16:22 29.54835 -89.59246 39212 ft 501 kts 138°
2026-05-04 16:23 29.41317 -89.40984 39199 ft 500 kts 138°
2026-05-04 16:25 29.28534 -89.23798 39203 ft 500 kts 138°
2026-05-04 16:26 29.11969 -89.01639 39170 ft 501 kts 140°
2026-05-04 16:28 29.01353 -88.87519 39183 ft 501 kts 140°
2026-05-04 16:29 28.85391 -88.66318 39190 ft 506 kts 140°
2026-05-04 16:31 28.74008 -88.51021 39185 ft 506 kts 140°
2026-05-04 16:32 28.60355 -88.32807 39146 ft 504 kts 141°
2026-05-04 16:33 28.51236 -88.20669 39165 ft 505 kts 141°
2026-05-04 16:34 28.44385 -88.11583 39172 ft 505 kts 141°
2026-05-04 16:35 28.38049 -88.01909 39179 ft 525 kts 124°
2026-05-04 16:35 28.34369 -87.89999 39141 ft 535 kts 115°
2026-05-04 16:36 28.30896 -87.77973 39163 ft 534 kts 115°
2026-05-04 16:37 28.27395 -87.65962 39168 ft 534 kts 116°
2026-05-04 16:38 28.22739 -87.49951 39171 ft 534 kts 116°
2026-05-04 16:39 28.16885 -87.30021 39152 ft 534 kts 116°
2026-05-04 16:40 28.12183 -87.14032 39159 ft 535 kts 116°
2026-05-04 16:41 28.06265 -86.94063 39156 ft 535 kts 117°
2026-05-04 16:43 28.00313 -86.74120 39125 ft 535 kts 117°
2026-05-04 16:43 27.96842 -86.62087 39137 ft 537 kts 116°
2026-05-04 16:45 27.89870 -86.38017 39158 ft 537 kts 117°
2026-05-04 16:46 27.84025 -86.18055 39160 ft 536 kts 117°
2026-05-04 16:47 27.79331 -86.02074 39161 ft 536 kts 117°
2026-05-04 16:48 27.74606 -85.86134 39158 ft 535 kts 117°
2026-05-04 16:49 27.69879 -85.70213 39154 ft 535 kts 117°
2026-05-04 16:50 27.65142 -85.54301 39153 ft 535 kts 117°
2026-05-04 16:51 27.61571 -85.42386 39134 ft 535 kts 117°
2026-05-04 16:52 27.57717 -85.26078 39143 ft 544 kts 108°
2026-05-04 16:53 27.55549 -85.13525 39143 ft 544 kts 108°
2026-05-04 16:54 27.52614 -84.96811 39136 ft 543 kts 109°
2026-05-04 16:55 27.48203 -84.71867 39138 ft 543 kts 109°
2026-05-04 16:56 27.44476 -84.51085 39137 ft 540 kts 108°
2026-05-04 16:57 27.42252 -84.38665 39137 ft 539 kts 109°
2026-05-04 16:58 27.39259 -84.22156 39127 ft 538 kts 109°
2026-05-04 17:00 27.34753 -83.97481 39120 ft 536 kts 109°
2026-05-04 17:01 27.30977 -83.77000 39115 ft 534 kts 109°
2026-05-04 17:02 27.27941 -83.60676 39108 ft 533 kts 109°
2026-05-04 17:03 27.25657 -83.48450 39106 ft 532 kts 109°
2026-05-04 17:03 27.23367 -83.36261 39108 ft 531 kts 109°
2026-05-04 17:04 27.20295 -83.20064 39099 ft 530 kts 109°
2026-05-04 17:05 27.15726 -83.04770 39095 ft 500 kts 133°
2026-05-04 17:06 27.09932 -82.95221 39094 ft 495 kts 135°
2026-05-04 17:07 27.04750 -82.86676 39090 ft 495 kts 135°
2026-05-04 17:07 27.00219 -82.79222 39087 ft 495 kts 135°
2026-05-04 17:08 26.94261 -82.69832 39050 ft 483 kts 143°
2026-05-04 17:08 26.91913 -82.67221 39056 ft 470 kts 152°
2026-05-04 17:09 26.89381 -82.64962 39058 ft 464 kts 154°
2026-05-04 17:09 26.84282 -82.60534 39067 ft 464 kts 154°
2026-05-04 17:10 26.71570 -82.49453 39075 ft 465 kts 154°
2026-05-04 17:11 26.66468 -82.45020 39031 ft 465 kts 154°